Regional Weather Roundup
Issued by NWS

Home | Current Version | Previous Version | Graphics & Text | Print | Product List | Glossary On
Versions: 1 2 3 4 5 6 7 8 9 10 11 12 13 14 15 16 17 18 19 20 21 22 23 24 25 26 27 28 29 30 31 32 33 34 35 36 37 38 39 40 41 42 43 44 45 46 47 48 49 50
000
ASUS45 KTFX 241204
RWRMT
MONTANA HOURLY WEATHER ROUNDUP
NATIONAL WEATHER SERVICE GREAT FALLS MT
604 AM MDT THU APR 24 2014

NOTE: "FAIR" INDICATES FEW OR NO CLOUDS BELOW 12000 FEET WITH NO
SIGNIFICANT WEATHER AND/OR OBSTRUCTIONS TO VISIBILITY.

* THESE STATIONS ARE NOT UNDER NWS QUALITY CONTROL. THEY DO NOT
   REPORT WEATHER SUCH AS PRECIPITATION OR FOG.

MTZ001>007-043-241300-
WEST OF THE DIVIDE
CITY           SKY/WX    TMP DP  RH WIND       PRES   REMARKS
KALISPELL      LGT RAIN  37  34  89 S5        29.82F WCI  33
MISSOULA       CLOUDY    37  36  96 CALM      29.85F
BUTTE          CLOUDY    36  21  54 CALM      29.86S
MULLAN PASS    LGT SNOW  28  28 100 VRB5      29.73F VSB 1/2  WCI  22
* ESSEX        N/A       32  29  89 NE1        N/A
* LINCOLN      N/A       32  31  96 W3G12      N/A
* LOOKOUT PASS N/A       31  31 100 SE4G11     N/A
* POLSON       N/A       35  34  96 N/A        N/A
* SEELEY LAKE  N/A       31  30  96 N/A        N/A
* THOMP F APT  MOCLDY    26  20  78 NE2G8      N/A
$$

MTZ008-052>055-241300-
SOUTHWEST MONTANA
CITY           SKY/WX    TMP DP  RH WIND       PRES   REMARKS
BOZEMAN        CLOUDY    45  19  35 SW9       29.88S
DILLON         PTCLDY    36  25  64 SW8       29.87F WCI  30
W YELLOWSTONE  N/A       26  22  85 SW1G8      N/A
* THREE FORKS  MOCLDY    43  27  53 S5         N/A
* BOULDER HILL N/A       35  19  52 S9         N/A   WCI  28
* MONIDA PASS  N/A       23  19  85 SE14G19    N/A   WCI  10
* RAYNOLDS PAS N/A       23   6  48 SE13       N/A   WCI  11
* WHITEHALL    N/A       42  22  45 SW10G19    N/A
* WISE RIVER   N/A       34  23  64 W7G15      N/A   WCI  28
$$

MTZ009>010-012-014-046-048-049-054-241300-
EAST SLOPES AND CENTRAL MONTANA
CITY           SKY/WX    TMP DP  RH WIND       PRES   REMARKS
CUT BANK       PTCLDY    30  23  75 W10       29.74F WCI  21
GREAT FALLS    CLOUDY    39  30  70 SW14      29.79S WCI  31
HELENA         CLOUDY    39  34  82 CALM      29.85F
MALMSTROM AFB  MOCLDY    39  28  65 SW12      29.77S WCI  32
* CONRAD       PTCLDY    27  21  78 N/A        N/A
* DEARBORN     N/A       43  29  58 S9G15      N/A
* EAST GLACIER N/A       32  23  69 W15        N/A   WCI  22
* MONARCH      N/A       34  18  52 SW10G18    N/A   WCI  26
* PENDROY      N/A       35  21  57 W4         N/A
* ROGERS PASS  N/A       31  28  89 SE13G21    N/A   WCI  21
* SAINT MARY   N/A       35  23  62 S7G19      N/A   WCI  29
* SWEET GRASS  N/A       34  22  61 S12G19     N/A   WCI  25
$$

MTZ011-013-016-021-035-040-045-047-050-051-241300-
NORTH CENTRAL MONTANA
CITY           SKY/WX    TMP DP  RH WIND       PRES   REMARKS
HAVRE          CLEAR     32  27  82 SW14      29.78R WCI  22
LEWISTOWN      CLEAR     32  25  75 NW3       29.81R
* CHESTER      N/A       29  21  72 N/A        N/A
* DENTON       N/A       31  26  82 W8         N/A   WCI  24
* GEYSER       N/A       32  22  67 NW8        N/A   WCI  25
* JUDITH GAP   N/A       36  29  76 N6G12      N/A   WCI  31
* LOMA         N/A       33  28  82 SW2        N/A
$$

MTZ017>020-022>027-061-062-241300-
NORTHEAST MONTANA
CITY           SKY/WX    TMP DP  RH WIND       PRES   REMARKS
GLASGOW        CLEAR     32  27  82 W9        29.74R WCI  24
GLENDIVE       CLEAR     34  21  59 SW9       29.77S WCI  27
JORDAN         CLEAR     30  23  75 W7        29.78R WCI  23
SIDNEY         CLEAR     41  25  53 W13       29.73S
WOLF POINT     CLEAR     34  25  70 SW10      29.74R WCI  26
* BEAVER HILL  N/A       36  24  62 SW11       N/A   WCI  28
* CIRCLE       N/A       35  24  64 W5         N/A   WCI  31
* LINDSAY DVD  N/A       37  23  57 SW16       N/A   WCI  28
* NAVAJO       N/A       35  25  67 W17        N/A   WCI  25
* SACO         N/A       32  24  72 W7         N/A   WCI  25
$$

MTZ028>042-056>058-241300-
SOUTHCENTRAL AND SOUTHEAST MONTANA
CITY           SKY/WX    TMP DP  RH WIND       PRES   REMARKS
BAKER          PTCLDY    37  25  62 SW12      29.79F WCI  29
BILLINGS       MOCLDY    37  25  62 SW6       29.83S WCI  32
LIVINGSTON     PTCLDY    43  21  42 W35G52    29.77F
MILES CITY     PTCLDY    39  27  62 W10       29.81R WCI  32
* LAUREL APT   PTCLDY    37  19  48 N/A        N/A
* ROUNDUP APT  PTCLDY    43  25  49 SW16G21    N/A
* HYSHAM       N/A       41  27  58 W8G16      N/A
* LAME DEER    N/A       36  30  79 NW9G14     N/A   WCI  29
* REED POINT   N/A       32  27  82 SE5        N/A   WCI  27
* ROSCOE HILL  N/A       41  11  29 SE11G34    N/A
$$

REGIONAL REPORTS...DAKOTAS
CITY           SKY/WX    TMP DP  RH WIND       PRES   REMARKS
WILLISTON      CLEAR     37  27  67 SW8       29.70R WCI  31
DICKINSON      CLEAR     34  25  70 W10       29.73S WCI  26
CROSBY         MOCLDY    36  32  85 S10       29.66S WCI  29
TIOGA          CLEAR     36  28  73 SW10      29.70R WCI  29
WATFORD CITY   CLEAR     30  25  82 SW10      29.70S WCI  21
BISMARCK       CLEAR     36  28  73 NW6       29.73S WCI  31
GRAND FORKS    CLOUDY    39  37  93 SE10      29.77S WCI  32
FARGO          CLOUDY    43  37  79 S7        29.77R
BUFFALO SD     PTCLDY    34  21  59 W12       29.75S WCI  25
RAPID CITY     CLEAR     34  19  54 W9        29.85S WCI  27
$$

REGIONAL REPORTS...WYOMING/IDAHO/WASHINGTON
CITY           SKY/WX    TMP DP  RH WIND       PRES   REMARKS
GILLETTE       CLEAR     37  18  46 SW18      29.84F WCI  27
SHERIDAN       FAIR      34  19  54 N6        29.84R WCI  29
CODY           PTCLDY    43  18  37 W17G31    29.87F
YELLOWSTONE LA PTCLDY    27  19  72 VRB6      29.98F WCI  20
SALMON         CLOUDY    39  28  65 CALM      29.86F
MULLAN PASS    LGT SNOW  28  28 100 VRB5      29.73S VSB 1/2  WCI  22
SPOKANE        LGT RAIN  41  39  93 S6        29.74F
$$

REGIONAL REPORTS...ALBERTA
CITY           SKY/WX    TMP DP  RH WIND       PRES   REMARKS
EDMONTON       CLOUDY    34  30  85 W10       29.66R WCI  26

$$




USA.gov is the U.S. government's official web portal to all federal, state and local government web resources and services.